AAR211 KSFO-RKSI

Flight info

Callsign AAR211
Flight time N/A
Altitude 34000
Route GNNRR3 AMAKR DCT REDWD DCT UNVER DCT 42N130W 47N140W 52N150W 55N160W/N0486F360 56N170W DCT POOFF DCT NIKLL/N0481F370 R220 NUZAN/N0490F380 R220 NUBDA/N0488F390 R220 NODAN/N0485F380 R217 ASTER/N0484F400 R217 GTC Y142 SAMON Y14 SUGNO Y16 SAPRA Y685 GUKDO GUKDO2H
Aircraft B772/H-SDE2E3FGHIJ5LORVWXY/LB1D1

Departure

Time N/A
Airport San Francisco International Airport (KSFO)

Arrival

Time 2026-05-05 12:33
Airport Incheon International Airport (RKSI)
Time Latitude Longitude Altitude Speed Heading
2026-05-05 08:34 47.79630 155.68851 33572 ft 428 kts 231°
2026-05-05 08:34 47.76911 155.63998 33565 ft 427 kts 231°
2026-05-05 08:35 47.72794 155.56665 33589 ft 423 kts 231°
2026-05-05 08:35 47.68906 155.49757 33572 ft 428 kts 231°
2026-05-05 08:36 47.65032 155.42892 33590 ft 422 kts 231°
2026-05-05 08:36 47.61130 155.35992 33574 ft 431 kts 231°
2026-05-05 08:37 47.57191 155.29051 33609 ft 426 kts 231°
2026-05-05 08:37 47.53252 155.22122 33604 ft 426 kts 231°
2026-05-05 08:38 47.49265 155.15129 33613 ft 429 kts 231°
2026-05-05 08:38 47.45298 155.08189 33626 ft 424 kts 230°
2026-05-05 08:39 47.41304 155.01218 33617 ft 431 kts 231°
2026-05-05 08:39 47.37335 154.94310 33636 ft 426 kts 231°
2026-05-05 08:40 47.33346 154.87386 33629 ft 427 kts 231°
2026-05-05 08:40 47.29346 154.80460 33635 ft 429 kts 231°
2026-05-05 08:41 47.25335 154.73531 33658 ft 426 kts 231°
2026-05-05 08:41 47.21339 154.66646 33669 ft 427 kts 231°
2026-05-05 08:42 47.17276 154.59663 33646 ft 429 kts 231°
2026-05-05 08:42 47.13256 154.52774 33667 ft 426 kts 231°
2026-05-05 08:43 47.09228 154.45885 33661 ft 429 kts 231°
2026-05-05 08:43 47.05186 154.38992 33666 ft 429 kts 231°
2026-05-05 08:44 47.01112 154.32062 33662 ft 430 kts 230°
2026-05-05 08:44 46.97073 154.25209 33657 ft 432 kts 230°
2026-05-05 08:45 46.93008 154.18329 33680 ft 430 kts 231°
2026-05-05 08:45 46.88895 154.11385 33681 ft 428 kts 230°
2026-05-05 08:46 46.84820 154.04524 33685 ft 433 kts 231°
2026-05-05 08:46 46.80760 153.97705 33720 ft 428 kts 231°
2026-05-05 08:47 46.76741 153.90971 33731 ft 427 kts 231°
2026-05-05 08:47 46.72757 153.84311 33735 ft 433 kts 231°
2026-05-05 08:48 46.68716 153.77574 33742 ft 429 kts 231°
2026-05-05 08:48 46.64588 153.70709 33700 ft 431 kts 231°
2026-05-05 08:49 46.60522 153.63963 33700 ft 432 kts 231°
2026-05-05 08:49 46.56492 153.57295 33713 ft 429 kts 231°
2026-05-05 08:50 46.52380 153.50508 33732 ft 431 kts 231°
2026-05-05 08:50 46.48291 153.43774 33745 ft 427 kts 231°
2026-05-05 08:51 46.44194 153.37044 33730 ft 431 kts 231°
2026-05-05 08:51 46.40173 153.30455 33767 ft 429 kts 230°
2026-05-05 08:52 46.36066 153.23743 33786 ft 428 kts 231°
2026-05-05 08:52 46.31974 153.17070 33788 ft 428 kts 231°
2026-05-05 08:53 46.27880 153.10410 33780 ft 430 kts 231°
2026-05-05 08:53 46.23733 153.03680 33789 ft 430 kts 231°
2026-05-05 08:54 46.19611 152.97049 33780 ft 428 kts 230°
2026-05-05 08:54 46.15459 152.90419 33787 ft 430 kts 230°
2026-05-05 08:55 46.11310 152.83809 33797 ft 431 kts 230°
2026-05-05 08:55 46.07145 152.77193 33794 ft 426 kts 231°
2026-05-05 08:56 46.03086 152.70756 33811 ft 428 kts 231°
2026-05-05 08:56 45.98987 152.64275 33831 ft 428 kts 231°
2026-05-05 08:57 45.94953 152.57912 33818 ft 426 kts 231°
2026-05-05 08:57 45.90898 152.51529 33800 ft 428 kts 231°
2026-05-05 08:58 45.86875 152.45212 33793 ft 428 kts 231°
2026-05-05 08:58 45.82804 152.38834 33858 ft 426 kts 231°
2026-05-05 08:59 45.78712 152.32437 33787 ft 430 kts 230°
2026-05-05 08:59 45.74611 152.26042 33840 ft 428 kts 230°
2026-05-05 09:00 45.70512 152.19667 33826 ft 430 kts 230°
2026-05-05 09:00 45.66439 152.13345 33815 ft 430 kts 230°
2026-05-05 09:01 45.62345 152.07005 33829 ft 431 kts 231°
2026-05-05 09:01 45.58252 152.00682 33820 ft 430 kts 231°
2026-05-05 09:02 45.54111 151.94301 33844 ft 430 kts 231°
2026-05-05 09:02 45.49992 151.87965 33861 ft 431 kts 231°
2026-05-05 09:03 45.45879 151.81657 33869 ft 429 kts 231°
2026-05-05 09:03 45.41798 151.75409 33883 ft 429 kts 231°
2026-05-05 09:04 45.37650 151.69075 33867 ft 430 kts 231°
2026-05-05 09:04 45.33538 151.62810 33861 ft 429 kts 231°
2026-05-05 09:05 45.29411 151.56534 33872 ft 434 kts 231°
2026-05-05 09:05 45.25296 151.50296 33917 ft 430 kts 231°
2026-05-05 09:06 45.21159 151.44031 33849 ft 433 kts 231°
2026-05-05 09:06 45.17036 151.37810 33878 ft 427 kts 231°
2026-05-05 09:07 45.12907 151.31589 33904 ft 431 kts 230°
2026-05-05 09:07 45.08718 151.25293 33874 ft 431 kts 231°
2026-05-05 09:08 45.04508 151.18979 33909 ft 434 kts 231°
2026-05-05 09:08 45.00272 151.12642 33902 ft 431 kts 230°
2026-05-05 09:09 44.96117 151.06441 33921 ft 433 kts 230°
2026-05-05 09:09 44.91949 151.00232 33886 ft 435 kts 230°
2026-05-05 09:10 44.87764 150.94016 33931 ft 431 kts 230°
2026-05-05 09:10 44.83543 150.87756 33936 ft 431 kts 230°
2026-05-05 09:11 44.79315 150.81502 33930 ft 436 kts 231°
2026-05-05 09:11 44.75063 150.75227 33920 ft 433 kts 231°
2026-05-05 09:12 44.70835 150.69002 33935 ft 432 kts 231°
2026-05-05 09:12 44.66574 150.62741 33910 ft 434 kts 231°
2026-05-05 09:13 44.62313 150.56494 33926 ft 437 kts 231°
2026-05-05 09:13 44.58093 150.50323 33894 ft 436 kts 231°
2026-05-05 09:14 44.53844 150.44122 33927 ft 436 kts 231°
2026-05-05 09:14 44.49568 150.37897 33940 ft 438 kts 231°
2026-05-05 09:15 44.45279 150.31668 33961 ft 437 kts 230°
2026-05-05 09:15 44.40942 150.25382 33937 ft 435 kts 230°
2026-05-05 09:16 44.36629 150.19144 33935 ft 437 kts 230°
2026-05-05 09:16 44.32301 150.12898 33958 ft 440 kts 230°
2026-05-05 09:17 44.27935 150.06615 33961 ft 436 kts 230°
2026-05-05 09:17 44.23629 150.00429 33940 ft 440 kts 230°
2026-05-05 09:18 44.19311 149.94241 33976 ft 440 kts 230°
2026-05-05 09:18 44.14959 149.88020 33968 ft 439 kts 230°
2026-05-05 09:19 44.10641 149.81860 33962 ft 439 kts 230°
2026-05-05 09:19 44.06313 149.75697 33952 ft 441 kts 230°
2026-05-05 09:20 44.01964 149.69522 33956 ft 439 kts 230°
2026-05-05 09:20 43.97633 149.63384 33958 ft 442 kts 230°
2026-05-05 09:21 43.93263 149.57205 33961 ft 438 kts 230°
2026-05-05 09:21 43.88923 149.51080 33965 ft 439 kts 230°
2026-05-05 09:22 43.84531 149.44899 33971 ft 439 kts 230°
2026-05-05 09:22 43.80189 149.38800 33957 ft 437 kts 230°
2026-05-05 09:23 43.75825 149.32683 33983 ft 439 kts 230°
2026-05-05 09:23 43.71446 149.26558 33980 ft 438 kts 230°
2026-05-05 09:24 43.67046 149.20421 34001 ft 438 kts 230°
2026-05-05 09:24 43.62623 149.14261 33993 ft 440 kts 230°
2026-05-05 09:25 43.58165 149.08069 33996 ft 439 kts 230°
2026-05-05 09:25 43.53715 149.01901 33982 ft 439 kts 230°
2026-05-05 09:26 43.49282 148.95770 33987 ft 439 kts 230°
2026-05-05 09:26 43.44859 148.89665 33980 ft 440 kts 230°
2026-05-05 09:27 43.40376 148.83495 34015 ft 440 kts 230°
2026-05-05 09:27 43.35892 148.77333 33995 ft 442 kts 230°
2026-05-05 09:28 43.31404 148.71181 34012 ft 443 kts 230°
2026-05-05 09:28 43.26917 148.65045 33981 ft 439 kts 230°
2026-05-05 09:29 43.22422 148.58908 34001 ft 442 kts 230°
2026-05-05 09:29 43.17938 148.52802 34012 ft 444 kts 230°
2026-05-05 09:30 43.13474 148.46736 34012 ft 442 kts 230°
2026-05-05 09:30 43.08959 148.40614 34005 ft 445 kts 230°
2026-05-05 09:31 43.04465 148.34535 33992 ft 444 kts 229°
2026-05-05 09:31 42.99872 148.28334 34015 ft 446 kts 230°
2026-05-05 09:32 42.95310 148.22192 34024 ft 443 kts 230°
2026-05-05 09:32 42.90752 148.16064 34024 ft 445 kts 229°
2026-05-05 09:33 42.86157 148.09901 34004 ft 449 kts 229°
2026-05-05 09:33 42.81501 148.03673 34025 ft 447 kts 230°
2026-05-05 09:34 42.76852 147.97466 34061 ft 446 kts 230°
2026-05-05 09:34 42.72275 147.91370 34026 ft 445 kts 230°
2026-05-05 09:35 42.67615 147.85173 34038 ft 450 kts 230°
2026-05-05 09:35 42.60683 147.75987 34042 ft 446 kts 230°
2026-05-05 09:36 42.56036 147.69844 34031 ft 446 kts 230°
2026-05-05 09:36 42.51432 147.63773 34048 ft 443 kts 230°
2026-05-05 09:37 42.46809 147.57686 34010 ft 445 kts 230°
2026-05-05 09:37 42.42233 147.51677 34040 ft 445 kts 230°
2026-05-05 09:38 42.37625 147.45636 34032 ft 445 kts 230°
2026-05-05 09:38 42.33035 147.39622 34023 ft 441 kts 230°
2026-05-05 09:39 42.28466 147.33647 34032 ft 444 kts 229°
2026-05-05 09:39 42.23822 147.27588 34039 ft 444 kts 229°
2026-05-05 09:40 42.19183 147.21552 34061 ft 442 kts 229°
2026-05-05 09:40 42.14547 147.15526 34049 ft 446 kts 229°
2026-05-05 09:41 42.09901 147.09506 34042 ft 443 kts 229°
2026-05-05 09:41 42.05254 147.03494 34049 ft 443 kts 229°
2026-05-05 09:42 42.00644 146.97545 34089 ft 444 kts 230°
2026-05-05 09:42 41.96019 146.91588 34059 ft 444 kts 230°
2026-05-05 09:43 41.91425 146.85684 34061 ft 444 kts 230°
2026-05-05 09:43 41.86792 146.79729 34053 ft 441 kts 229°
2026-05-05 09:44 41.82179 146.73811 34077 ft 442 kts 229°
2026-05-05 09:44 41.77600 146.67950 34089 ft 441 kts 229°
2026-05-05 09:45 41.72989 146.62059 34071 ft 442 kts 229°
2026-05-05 09:45 41.68430 146.56249 34109 ft 440 kts 230°
2026-05-05 09:46 41.63810 146.50369 34100 ft 443 kts 229°
2026-05-05 09:46 41.59223 146.44548 34049 ft 441 kts 229°
2026-05-05 09:47 41.54670 146.38782 34095 ft 440 kts 230°
2026-05-05 09:47 41.50132 146.33044 34100 ft 440 kts 229°
2026-05-05 09:48 41.45525 146.27229 34079 ft 441 kts 229°
2026-05-05 09:48 41.40948 146.21469 34080 ft 441 kts 229°
2026-05-05 09:49 41.36365 146.15709 34076 ft 442 kts 229°
2026-05-05 09:49 41.31756 146.09930 34045 ft 440 kts 229°
2026-05-05 09:50 41.27187 146.04213 34137 ft 439 kts 229°
2026-05-05 09:50 41.22604 145.98488 34162 ft 441 kts 229°
2026-05-05 09:51 41.17994 145.92743 34094 ft 440 kts 229°
2026-05-05 09:51 41.13392 145.87019 34108 ft 440 kts 230°
2026-05-05 09:52 41.08814 145.81334 34120 ft 443 kts 230°
2026-05-05 09:52 41.04229 145.75659 34154 ft 434 kts 229°
2026-05-05 09:53 40.99726 145.70090 34080 ft 439 kts 229°
2026-05-05 09:53 40.95175 145.64475 34122 ft 436 kts 229°
2026-05-05 09:54 40.90645 145.58896 34118 ft 435 kts 230°
2026-05-05 09:54 40.86052 145.53247 34139 ft 440 kts 229°
2026-05-05 09:55 40.81517 145.47685 34130 ft 439 kts 229°
2026-05-05 09:55 40.76927 145.42067 34135 ft 438 kts 230°
2026-05-05 09:56 40.72355 145.36481 34133 ft 438 kts 229°
2026-05-05 09:56 40.67820 145.30951 34140 ft 437 kts 229°
2026-05-05 09:57 40.63225 145.25359 34128 ft 438 kts 229°
2026-05-05 09:57 40.58661 145.19815 34139 ft 436 kts 229°
2026-05-05 09:58 40.54062 145.14237 34112 ft 439 kts 229°
2026-05-05 09:58 40.49480 145.08694 34117 ft 438 kts 229°
2026-05-05 09:59 40.44946 145.03218 34143 ft 437 kts 229°
2026-05-05 09:59 40.40859 144.97324 34182 ft 426 kts 242°
2026-05-05 10:00 40.37730 144.90637 34144 ft 423 kts 244°
2026-05-05 10:00 40.34653 144.83964 34151 ft 425 kts 244°
2026-05-05 10:01 40.31549 144.77283 34107 ft 424 kts 244°
2026-05-05 10:01 40.28442 144.70622 34177 ft 425 kts 243°
2026-05-05 10:02 40.25344 144.64003 34114 ft 425 kts 244°
2026-05-05 10:02 40.22224 144.57355 34140 ft 425 kts 244°
2026-05-05 10:03 40.19102 144.50717 34094 ft 424 kts 244°
2026-05-05 10:03 40.15999 144.44135 34184 ft 428 kts 244°
2026-05-05 10:04 40.12867 144.37508 34095 ft 426 kts 244°
2026-05-05 10:04 40.09747 144.30917 34192 ft 429 kts 243°
2026-05-05 10:05 40.06604 144.24295 34179 ft 427 kts 243°
2026-05-05 10:05 40.03464 144.17694 34141 ft 419 kts 243°
2026-05-05 10:06 40.00340 144.11134 34153 ft 428 kts 243°
2026-05-05 10:06 39.97205 144.04570 34148 ft 428 kts 243°
2026-05-05 10:07 39.94038 143.97954 34119 ft 430 kts 243°
2026-05-05 10:07 39.90854 143.91316 34133 ft 426 kts 243°
2026-05-05 10:08 39.87724 143.84802 34132 ft 427 kts 243°
2026-05-05 10:08 39.84566 143.78247 34131 ft 422 kts 243°
2026-05-05 10:09 39.81397 143.71677 34133 ft 428 kts 243°
2026-05-05 10:09 39.78245 143.65164 34127 ft 421 kts 243°
2026-05-05 10:10 39.75104 143.58678 34147 ft 425 kts 243°
2026-05-05 10:10 39.71945 143.52176 34136 ft 421 kts 243°
2026-05-05 10:11 39.68800 143.45708 34152 ft 427 kts 243°
2026-05-05 10:11 39.65622 143.39195 34103 ft 417 kts 243°
2026-05-05 10:12 39.62479 143.32758 34096 ft 427 kts 242°
2026-05-05 10:12 39.59304 143.26279 34134 ft 417 kts 242°
2026-05-05 10:13 39.56184 143.19917 34184 ft 421 kts 243°
2026-05-05 10:13 39.52970 143.13376 34136 ft 426 kts 243°
2026-05-05 10:14 39.49766 143.06877 34155 ft 418 kts 243°
2026-05-05 10:14 39.46563 143.00388 34148 ft 416 kts 243°
2026-05-05 10:15 39.43343 142.93878 34170 ft 415 kts 242°
2026-05-05 10:15 39.40174 142.87483 34191 ft 416 kts 242°
2026-05-05 10:16 39.37021 142.81131 34100 ft 422 kts 242°
2026-05-05 10:16 39.33902 142.74867 34162 ft 418 kts 242°
2026-05-05 10:17 39.30716 142.68477 34149 ft 416 kts 242°
2026-05-05 10:17 39.27506 142.62050 34112 ft 419 kts 242°
2026-05-05 10:18 39.24271 142.55594 34206 ft 409 kts 242°
2026-05-05 10:18 39.20631 142.49568 34173 ft 416 kts 236°
2026-05-05 10:19 39.16749 142.43686 34162 ft 419 kts 235°
2026-05-05 10:19 39.12909 142.37892 34124 ft 419 kts 235°
2026-05-05 10:20 39.09074 142.32123 34198 ft 412 kts 234°
2026-05-05 10:20 39.05313 142.26468 34236 ft 419 kts 234°
2026-05-05 10:21 39.01529 142.20799 34163 ft 413 kts 234°
2026-05-05 10:21 38.97684 142.15042 34178 ft 420 kts 234°
2026-05-05 10:22 38.93861 142.09335 34162 ft 416 kts 234°
2026-05-05 10:22 38.90001 142.03580 34155 ft 416 kts 234°
2026-05-05 10:23 38.86253 141.98001 34138 ft 419 kts 234°
2026-05-05 10:23 38.82525 141.92467 34167 ft 412 kts 234°
2026-05-05 10:24 38.78769 141.86893 34153 ft 416 kts 234°
2026-05-05 10:24 38.75046 141.81384 34155 ft 415 kts 234°
2026-05-05 10:25 38.71225 141.75737 34138 ft 415 kts 234°
2026-05-05 10:25 38.67460 141.70184 34177 ft 410 kts 234°
2026-05-05 10:26 38.63683 141.64619 34173 ft 417 kts 234°
2026-05-05 10:26 38.59910 141.59078 34167 ft 411 kts 234°
2026-05-05 10:27 38.56096 141.53481 34179 ft 410 kts 234°
2026-05-05 10:27 38.52249 141.47842 34159 ft 416 kts 234°
2026-05-05 10:28 38.48430 141.42261 34153 ft 410 kts 234°
2026-05-05 10:28 38.44634 141.36720 34159 ft 411 kts 234°
2026-05-05 10:29 38.40858 141.31220 34189 ft 409 kts 233°
2026-05-05 10:29 38.37041 141.25665 34172 ft 407 kts 234°
2026-05-05 10:30 38.33232 141.20134 34191 ft 408 kts 233°
2026-05-05 10:30 38.29374 141.14543 34182 ft 404 kts 234°
2026-05-05 10:31 38.25588 141.09064 34157 ft 403 kts 233°
2026-05-05 10:31 38.21794 141.03583 34154 ft 408 kts 234°
2026-05-05 10:32 38.17995 140.98105 34167 ft 405 kts 234°
2026-05-05 10:32 38.14926 140.92246 34153 ft 393 kts 247°
2026-05-05 10:33 38.13187 140.85616 34169 ft 397 kts 260°
2026-05-05 10:33 38.12519 140.78597 34155 ft 392 kts 263°
2026-05-05 10:34 38.11908 140.71574 34147 ft 398 kts 263°
2026-05-05 10:34 38.11271 140.64568 34158 ft 400 kts 263°
2026-05-05 10:35 38.10583 140.57400 34158 ft 399 kts 263°
2026-05-05 10:35 38.09827 140.50249 34160 ft 396 kts 262°
2026-05-05 10:36 38.09055 140.43001 34170 ft 399 kts 263°
2026-05-05 10:36 38.08291 140.35858 34187 ft 401 kts 262°
2026-05-05 10:37 38.07515 140.28612 34160 ft 393 kts 262°
2026-05-05 10:37 38.06860 140.21478 34179 ft 404 kts 263°
2026-05-05 10:38 38.06199 140.14239 34167 ft 393 kts 263°
2026-05-05 10:38 38.05548 140.07207 34157 ft 401 kts 262°
2026-05-05 10:39 38.04876 140.00018 34195 ft 398 kts 263°
2026-05-05 10:39 38.04200 139.92833 34155 ft 395 kts 263°
2026-05-05 10:40 38.03516 139.85623 34171 ft 401 kts 263°
2026-05-05 10:40 38.02823 139.78368 34165 ft 402 kts 263°
2026-05-05 10:41 38.02090 139.71146 34157 ft 394 kts 262°
2026-05-05 10:41 38.01316 139.63934 34162 ft 402 kts 262°
2026-05-05 10:42 38.00129 139.52922 34134 ft 399 kts 262°
2026-05-05 10:43 37.99344 139.45680 34187 ft 401 kts 262°
2026-05-05 10:43 37.98563 139.38268 34147 ft 404 kts 263°
2026-05-05 10:44 37.97831 139.31012 34193 ft 400 kts 262°
2026-05-05 10:44 37.97085 139.23692 34168 ft 406 kts 262°
2026-05-05 10:45 37.96323 139.16267 34139 ft 404 kts 262°
2026-05-05 10:45 37.94994 139.09149 34160 ft 407 kts 250°
2026-05-05 10:46 37.92752 139.02563 34140 ft 404 kts 248°
2026-05-05 10:46 37.90503 138.96071 34123 ft 401 kts 248°
2026-05-05 10:47 37.88250 138.89578 34146 ft 406 kts 248°
2026-05-05 10:47 37.86003 138.83115 34151 ft 402 kts 248°
2026-05-05 10:48 37.83739 138.76619 34165 ft 399 kts 248°
2026-05-05 10:48 37.81471 138.70123 34139 ft 405 kts 248°
2026-05-05 10:49 37.79204 138.63646 34152 ft 400 kts 248°
2026-05-05 10:49 37.76942 138.57193 34170 ft 399 kts 248°
2026-05-05 10:50 37.74684 138.50769 34166 ft 398 kts 248°
2026-05-05 10:50 37.72426 138.44360 34171 ft 395 kts 248°
2026-05-05 10:51 37.70163 138.37946 34159 ft 401 kts 248°
2026-05-05 10:51 37.67875 138.31473 34159 ft 404 kts 248°
2026-05-05 10:52 37.65596 138.25041 34147 ft 391 kts 247°
2026-05-05 10:52 37.63365 138.18756 34175 ft 399 kts 248°
2026-05-05 10:53 37.61118 138.12437 34170 ft 394 kts 247°
2026-05-05 10:53 37.58848 138.06071 34161 ft 399 kts 247°
2026-05-05 10:54 37.56579 137.99722 34160 ft 394 kts 247°
2026-05-05 10:54 37.54285 137.93312 34156 ft 397 kts 248°
2026-05-05 10:55 37.51972 137.86865 34152 ft 404 kts 248°
2026-05-05 10:55 37.49657 137.80429 34175 ft 399 kts 248°
2026-05-05 10:56 37.47335 137.73984 34119 ft 394 kts 248°
2026-05-05 10:56 37.45100 137.67793 34142 ft 393 kts 247°
2026-05-05 10:57 37.42822 137.61494 34121 ft 397 kts 247°
2026-05-05 10:57 37.40541 137.55206 34133 ft 399 kts 248°
2026-05-05 10:58 37.38278 137.48978 34129 ft 388 kts 248°
2026-05-05 10:58 37.36026 137.42793 34157 ft 394 kts 248°
2026-05-05 10:59 37.33742 137.36530 34124 ft 397 kts 247°
2026-05-05 10:59 37.31459 137.30286 34166 ft 397 kts 246°
2026-05-05 11:00 37.29155 137.23996 34168 ft 398 kts 247°
2026-05-05 11:00 37.26838 137.17683 34146 ft 397 kts 246°
2026-05-05 11:01 37.24551 137.11465 34177 ft 396 kts 247°
2026-05-05 11:01 37.22253 137.05231 34173 ft 389 kts 246°
2026-05-05 11:02 37.19947 136.98984 34158 ft 393 kts 246°
2026-05-05 11:02 37.17669 136.92828 34148 ft 390 kts 247°
2026-05-05 11:03 37.15380 136.86656 34145 ft 392 kts 246°
2026-05-05 11:03 37.13069 136.80434 34148 ft 393 kts 246°
2026-05-05 11:04 37.10731 136.74156 34147 ft 394 kts 246°
2026-05-05 11:04 37.08429 136.67986 34154 ft 386 kts 246°
2026-05-05 11:05 37.06111 136.61780 34140 ft 391 kts 246°
2026-05-05 11:05 37.03818 136.55658 34145 ft 390 kts 246°
2026-05-05 11:06 37.01510 136.49504 34132 ft 390 kts 246°
2026-05-05 11:06 36.99209 136.43384 34147 ft 387 kts 246°
2026-05-05 11:07 36.96909 136.37276 34145 ft 387 kts 246°
2026-05-05 11:07 36.94587 136.31123 34149 ft 394 kts 245°
2026-05-05 11:08 36.92255 136.24957 34198 ft 389 kts 245°
2026-05-05 11:08 36.89944 136.18858 34157 ft 388 kts 245°
2026-05-05 11:09 36.87603 136.12691 34198 ft 391 kts 245°
2026-05-05 11:09 36.85303 136.06647 34166 ft 387 kts 245°
2026-05-05 11:10 36.82964 136.00510 34153 ft 390 kts 245°
2026-05-05 11:10 36.80660 135.94475 34170 ft 374 kts 246°
2026-05-05 11:11 36.78354 135.88446 34198 ft 387 kts 245°
2026-05-05 11:11 36.76025 135.82370 34138 ft 386 kts 245°
2026-05-05 11:12 36.73706 135.76334 34159 ft 380 kts 245°
2026-05-05 11:12 36.71394 135.70326 34145 ft 389 kts 245°
2026-05-05 11:13 36.69066 135.64288 34153 ft 384 kts 245°
2026-05-05 11:13 36.66742 135.58273 34137 ft 382 kts 245°
2026-05-05 11:14 36.64443 135.52331 34148 ft 386 kts 245°
2026-05-05 11:14 36.62116 135.46330 34136 ft 382 kts 245°
2026-05-05 11:15 36.59814 135.40405 34159 ft 382 kts 245°
2026-05-05 11:15 36.57501 135.34464 34146 ft 381 kts 245°
2026-05-05 11:16 36.55156 135.28447 34155 ft 388 kts 244°
2026-05-05 11:16 36.52824 135.22479 34161 ft 379 kts 245°
2026-05-05 11:17 36.50481 135.16493 34150 ft 386 kts 245°
2026-05-05 11:17 36.48131 135.10501 34155 ft 380 kts 245°
2026-05-05 11:18 36.45773 135.04498 34160 ft 380 kts 244°
2026-05-05 11:18 36.43452 134.98602 34144 ft 382 kts 244°
2026-05-05 11:19 36.41107 134.92656 34160 ft 385 kts 245°
2026-05-05 11:19 36.38664 134.86473 34143 ft 383 kts 245°
2026-05-05 11:20 36.36233 134.80331 34147 ft 382 kts 244°
2026-05-05 11:20 36.33812 134.74228 34139 ft 388 kts 245°
2026-05-05 11:21 36.31369 134.68082 34133 ft 383 kts 244°
2026-05-05 11:21 36.28911 134.61909 34143 ft 378 kts 245°
2026-05-05 11:22 36.26439 134.55711 34125 ft 380 kts 244°
2026-05-05 11:22 36.23910 134.49606 34137 ft 385 kts 240°
2026-05-05 11:23 36.20948 134.43611 34141 ft 384 kts 240°
2026-05-05 11:23 36.18023 134.37700 34143 ft 383 kts 240°
2026-05-05 11:24 36.15102 134.31816 34141 ft 383 kts 240°
2026-05-05 11:24 36.12202 134.25987 34159 ft 389 kts 240°
2026-05-05 11:25 36.09298 134.20165 34142 ft 381 kts 239°
2026-05-05 11:25 36.06397 134.14355 34151 ft 387 kts 240°
2026-05-05 11:26 36.03509 134.08585 34140 ft 384 kts 240°
2026-05-05 11:26 36.00610 134.02802 34152 ft 385 kts 239°
2026-05-05 11:27 35.97793 133.96829 34139 ft 387 kts 246°
2026-05-05 11:27 35.96180 133.90297 34143 ft 385 kts 258°
2026-05-05 11:28 35.95822 133.83511 34141 ft 389 kts 264°
2026-05-05 11:28 35.95626 133.76672 34140 ft 388 kts 264°
2026-05-05 11:29 35.95418 133.69788 34144 ft 390 kts 264°
2026-05-05 11:29 35.95199 133.62805 34140 ft 395 kts 264°
2026-05-05 11:30 35.94972 133.55728 34138 ft 394 kts 264°
2026-05-05 11:30 35.94744 133.48753 34130 ft 391 kts 264°
2026-05-05 11:31 35.94509 133.41748 34128 ft 392 kts 264°
2026-05-05 11:31 35.94271 133.34788 34112 ft 396 kts 264°
2026-05-05 11:31 35.94152 133.31282 34136 ft 385 kts 263°
2026-05-05 11:32 35.94034 133.27889 34137 ft 389 kts 264°
2026-05-05 11:32 35.93795 133.21144 34137 ft 398 kts 264°
2026-05-05 11:33 35.93552 133.14313 34136 ft 387 kts 264°
2026-05-05 11:33 35.93302 133.07468 34135 ft 391 kts 264°
2026-05-05 11:34 35.93051 133.00678 34132 ft 395 kts 263°
2026-05-05 11:34 35.92795 132.93842 34132 ft 391 kts 263°
2026-05-05 11:35 35.92538 132.87088 34129 ft 391 kts 263°
2026-05-05 11:35 35.92273 132.80250 34127 ft 399 kts 264°
2026-05-05 11:36 35.92006 132.73399 34128 ft 392 kts 264°
2026-05-05 11:36 35.91728 132.66411 34121 ft 393 kts 264°
2026-05-05 11:37 35.91444 132.59398 34115 ft 402 kts 263°
2026-05-05 11:37 35.91152 132.52267 34116 ft 402 kts 264°
2026-05-05 11:38 35.90854 132.45094 34099 ft 405 kts 264°
2026-05-05 11:38 35.90554 132.37944 34106 ft 401 kts 264°
2026-05-05 11:39 35.90247 132.30772 34114 ft 401 kts 263°
2026-05-05 11:39 35.89941 132.23688 34125 ft 395 kts 263°
2026-05-05 11:40 35.89630 132.16649 34126 ft 401 kts 263°
2026-05-05 11:40 35.89319 132.09639 34124 ft 404 kts 263°
2026-05-05 11:41 35.89005 132.02653 34121 ft 400 kts 263°
2026-05-05 11:41 35.88680 131.95572 34122 ft 408 kts 264°
2026-05-05 11:42 35.88351 131.88457 34117 ft 408 kts 263°
2026-05-05 11:42 35.88019 131.81364 34112 ft 406 kts 263°
2026-05-05 11:43 35.87671 131.74023 34099 ft 411 kts 264°
2026-05-05 11:43 35.87331 131.66907 34116 ft 395 kts 263°
2026-05-05 11:44 35.86990 131.59952 34111 ft 407 kts 263°
2026-05-05 11:44 35.86646 131.52948 34117 ft 401 kts 263°
2026-05-05 11:45 35.85945 131.38945 34108 ft 404 kts 264°
2026-05-05 11:46 35.85572 131.31663 34096 ft 412 kts 263°
2026-05-05 11:46 35.85204 131.24495 34113 ft 404 kts 263°
2026-05-05 11:47 35.84826 131.17284 34118 ft 411 kts 263°
2026-05-05 11:47 35.84450 131.10147 34101 ft 404 kts 263°
2026-05-05 11:48 35.83874 130.99412 34100 ft 415 kts 264°
2026-05-05 11:48 35.83487 130.92255 34118 ft 408 kts 263°
2026-05-05 11:49 35.83080 130.84878 34080 ft 417 kts 263°
2026-05-05 11:49 35.82670 130.77478 34083 ft 413 kts 263°
2026-05-05 11:50 35.82612 130.70151 34073 ft 417 kts 273°
2026-05-05 11:50 35.83539 130.62932 34111 ft 419 kts 275°
2026-05-05 11:51 35.84486 130.55681 34116 ft 417 kts 275°
2026-05-05 11:51 35.85414 130.48436 34082 ft 424 kts 275°
2026-05-05 11:52 35.86346 130.41081 34094 ft 426 kts 276°
2026-05-05 11:52 35.87271 130.33716 34102 ft 419 kts 275°
2026-05-05 11:53 35.88203 130.26242 34099 ft 424 kts 275°
2026-05-05 11:53 35.89119 130.18864 34116 ft 415 kts 274°
2026-05-05 11:54 35.90015 130.11574 34098 ft 428 kts 275°
2026-05-05 11:54 35.90935 130.04074 34090 ft 424 kts 275°
2026-05-05 11:55 35.91843 129.96628 34100 ft 428 kts 275°
2026-05-05 11:55 35.92724 129.89377 34101 ft 426 kts 275°
2026-05-05 11:56 35.93597 129.82136 34081 ft 427 kts 275°
2026-05-05 11:56 35.94468 129.74883 34103 ft 427 kts 275°
2026-05-05 11:57 35.95341 129.67569 34092 ft 428 kts 275°
2026-05-05 11:57 35.96202 129.60327 34080 ft 428 kts 275°
2026-05-05 11:58 35.97062 129.53070 34115 ft 429 kts 277°
2026-05-05 11:58 35.98872 129.46016 34067 ft 438 kts 292°
2026-05-05 11:59 36.02208 129.39641 34083 ft 442 kts 301°
2026-05-05 11:59 36.05798 129.33452 34079 ft 442 kts 301°
2026-05-05 12:00 36.09372 129.27269 34091 ft 442 kts 301°
2026-05-05 12:00 36.12926 129.21100 34098 ft 444 kts 301°
2026-05-05 12:01 36.16513 129.14861 34079 ft 445 kts 301°
2026-05-05 12:01 36.20095 129.08617 34094 ft 445 kts 301°
2026-05-05 12:02 36.23687 129.02342 34074 ft 444 kts 301°
2026-05-05 12:02 36.27251 128.96106 34097 ft 444 kts 301°
2026-05-05 12:03 36.30809 128.89868 34058 ft 443 kts 301°
2026-05-05 12:03 36.34364 128.83623 34109 ft 445 kts 302°
2026-05-05 12:04 36.37941 128.77330 34061 ft 443 kts 301°
2026-05-05 12:04 36.41475 128.71098 34077 ft 445 kts 302°
2026-05-05 12:05 36.45029 128.64822 34075 ft 444 kts 302°
2026-05-05 12:05 36.48581 128.58536 34071 ft 446 kts 302°
2026-05-05 12:06 36.52128 128.52249 34101 ft 445 kts 302°
2026-05-05 12:06 36.55674 128.45952 34073 ft 444 kts 302°
2026-05-05 12:07 36.59215 128.39650 34073 ft 444 kts 302°
2026-05-05 12:07 36.62708 128.33426 33577 ft 435 kts 302°
2026-05-05 12:08 36.64467 128.30306 32628 ft 442 kts 303°
2026-05-05 12:08 36.66253 128.27174 31589 ft 451 kts 303°
2026-05-05 12:08 36.68092 128.23952 30665 ft 456 kts 304°
2026-05-05 12:08 36.69931 128.20725 29800 ft 459 kts 304°
2026-05-05 12:09 36.71769 128.17496 29031 ft 459 kts 304°
2026-05-05 12:09 36.73623 128.14235 28184 ft 461 kts 304°
2026-05-05 12:09 36.75448 128.11023 27526 ft 458 kts 305°
2026-05-05 12:09 36.77280 128.07793 26932 ft 454 kts 305°
2026-05-05 12:10 36.79096 128.04590 26372 ft 449 kts 305°
2026-05-05 12:10 36.80907 128.01390 25719 ft 447 kts 305°
2026-05-05 12:10 36.82688 127.98243 25100 ft 444 kts 305°
2026-05-05 12:10 36.84456 127.95114 24524 ft 440 kts 306°
2026-05-05 12:11 36.86226 127.91976 23877 ft 438 kts 306°
2026-05-05 12:11 36.87967 127.88886 23228 ft 436 kts 306°
2026-05-05 12:11 36.89692 127.85820 22648 ft 432 kts 306°
2026-05-05 12:11 36.91405 127.82773 21989 ft 427 kts 306°
2026-05-05 12:12 36.93109 127.79740 20968 ft 421 kts 306°
2026-05-05 12:12 36.94783 127.76764 19880 ft 417 kts 306°
2026-05-05 12:12 36.96427 127.73841 19228 ft 403 kts 305°
2026-05-05 12:12 36.97981 127.71075 18851 ft 384 kts 305°
2026-05-05 12:13 36.99486 127.68396 18574 ft 363 kts 305°
2026-05-05 12:13 37.00893 127.65888 18395 ft 343 kts 305°
2026-05-05 12:13 37.02218 127.63525 18261 ft 323 kts 305°
2026-05-05 12:13 37.03484 127.61262 18070 ft 308 kts 305°
2026-05-05 12:14 37.04718 127.59055 18023 ft 318 kts 305°
2026-05-05 12:14 37.06031 127.56705 17994 ft 330 kts 305°
2026-05-05 12:14 37.07313 127.54409 17887 ft 316 kts 305°
2026-05-05 12:14 37.08561 127.52172 17541 ft 308 kts 305°
2026-05-05 12:15 37.09795 127.49957 16980 ft 307 kts 306°
2026-05-05 12:15 37.11013 127.47771 16407 ft 306 kts 306°
2026-05-05 12:15 37.12243 127.45561 15951 ft 303 kts 306°
2026-05-05 12:15 37.13421 127.43445 15923 ft 291 kts 305°
2026-05-05 12:16 37.14560 127.41396 15881 ft 279 kts 305°
2026-05-05 12:16 37.15645 127.39443 15832 ft 267 kts 306°
2026-05-05 12:16 37.16704 127.37536 15611 ft 262 kts 306°
2026-05-05 12:16 37.17742 127.35666 15336 ft 261 kts 306°
2026-05-05 12:17 37.18779 127.33796 14922 ft 262 kts 305°
2026-05-05 12:17 37.19825 127.31912 14647 ft 260 kts 305°
2026-05-05 12:17 37.20862 127.30040 14372 ft 259 kts 305°
2026-05-05 12:17 37.21926 127.28120 14091 ft 258 kts 305°
2026-05-05 12:18 37.22980 127.26215 13818 ft 257 kts 304°
2026-05-05 12:18 37.23995 127.24380 13634 ft 255 kts 304°
2026-05-05 12:18 37.25014 127.22540 13319 ft 253 kts 304°
2026-05-05 12:18 37.26010 127.20738 13097 ft 249 kts 304°
2026-05-05 12:19 37.26982 127.18977 13010 ft 245 kts 304°
2026-05-05 12:19 37.28016 127.17104 13009 ft 274 kts 304°
2026-05-05 12:19 37.29151 127.15047 13021 ft 301 kts 304°
2026-05-05 12:19 37.30384 127.12811 13022 ft 306 kts 304°
2026-05-05 12:20 37.31484 127.10815 13005 ft 294 kts 304°
2026-05-05 12:20 37.32630 127.08733 13001 ft 287 kts 304°
2026-05-05 12:20 37.33770 127.06661 13020 ft 289 kts 304°
2026-05-05 12:20 37.34923 127.04565 13006 ft 288 kts 304°
2026-05-05 12:21 37.36056 127.02505 13007 ft 289 kts 304°
2026-05-05 12:21 37.37205 127.00413 13005 ft 288 kts 304°
2026-05-05 12:21 37.38344 126.98338 13013 ft 289 kts 304°
2026-05-05 12:21 37.39485 126.96257 13008 ft 288 kts 304°
2026-05-05 12:22 37.40626 126.94177 13012 ft 288 kts 304°
2026-05-05 12:22 37.41827 126.92191 13008 ft 287 kts 311°
2026-05-05 12:22 37.43185 126.90292 13013 ft 288 kts 313°
2026-05-05 12:22 37.44539 126.88438 13018 ft 288 kts 313°
2026-05-05 12:23 37.45893 126.86577 13013 ft 288 kts 313°
2026-05-05 12:23 37.47242 126.84714 13013 ft 288 kts 313°
2026-05-05 12:23 37.48583 126.82860 13019 ft 288 kts 313°
2026-05-05 12:23 37.49947 126.80972 13010 ft 288 kts 313°
2026-05-05 12:24 37.51294 126.79108 13013 ft 288 kts 312°
2026-05-05 12:24 37.52631 126.77255 13023 ft 288 kts 313°
2026-05-05 12:24 37.53983 126.75382 13009 ft 288 kts 313°
2026-05-05 12:24 37.55316 126.73531 13000 ft 280 kts 313°
2026-05-05 12:25 37.56596 126.71756 12890 ft 266 kts 312°
2026-05-05 12:25 37.57835 126.70035 12371 ft 269 kts 312°
2026-05-05 12:25 37.59106 126.68269 11783 ft 272 kts 312°
2026-05-05 12:25 37.60363 126.66523 11349 ft 269 kts 312°
2026-05-05 12:26 37.61629 126.64763 10895 ft 267 kts 311°
2026-05-05 12:26 37.62782 126.62979 10465 ft 262 kts 298°
2026-05-05 12:26 37.63548 126.60950 10125 ft 256 kts 292°
2026-05-05 12:26 37.64213 126.58885 9708 ft 253 kts 291°
2026-05-05 12:27 37.64869 126.56815 9276 ft 252 kts 291°
2026-05-05 12:27 37.65517 126.54777 8854 ft 249 kts 291°
2026-05-05 12:27 37.66154 126.52776 8443 ft 247 kts 291°
2026-05-05 12:27 37.66794 126.50764 8022 ft 246 kts 290°
2026-05-05 12:28 37.67204 126.48721 7636 ft 242 kts 278°
2026-05-05 12:28 37.67428 126.46645 7223 ft 240 kts 276°
2026-05-05 12:28 37.67638 126.44548 6813 ft 238 kts 276°
2026-05-05 12:28 37.67842 126.42490 6398 ft 235 kts 273°
2026-05-05 12:29 37.67608 126.40467 5902 ft 234 kts 247°
2026-05-05 12:29 37.66881 126.38660 5490 ft 233 kts 241°
2026-05-05 12:29 37.66047 126.36875 5051 ft 233 kts 239°
2026-05-05 12:29 37.65214 126.35127 4618 ft 232 kts 239°
2026-05-05 12:30 37.64304 126.33509 4315 ft 222 kts 223°
2026-05-05 12:30 37.62935 126.32640 3749 ft 225 kts 193°
2026-05-05 12:30 37.61363 126.32642 3276 ft 226 kts 167°
2026-05-05 12:30 37.59972 126.33611 2983 ft 232 kts 146°
2026-05-05 12:31 37.58694 126.34872 2644 ft 232 kts 146°
2026-05-05 12:31 37.57404 126.36068 2319 ft 229 kts 147°
2026-05-05 12:31 37.56108 126.37211 1993 ft 222 kts 148°
2026-05-05 12:31 37.54831 126.38322 1673 ft 222 kts 147°
2026-05-05 12:32 37.53549 126.39455 1357 ft 225 kts 147°
2026-05-05 12:32 37.52281 126.40579 1038 ft 221 kts 147°
2026-05-05 12:32 37.51011 126.41705 722 ft 222 kts 146°
2026-05-05 12:32 37.49752 126.42821 406 ft 220 kts 146°
2026-05-05 12:33 37.48517 126.43916 107 ft 221 kts 145°
2026-05-05 12:33 37.47321 126.44969 35 ft 181 kts 145°
2026-05-05 12:33 37.46821 126.45427 35 ft 24 kts 144°
2026-05-05 12:33 37.46679 126.45531 35 ft 22 kts 156°
2026-05-05 12:34 37.46543 126.45583 35 ft 18 kts 167°
2026-05-05 12:34 37.46506 126.45591 35 ft 0 kts 171°
2026-05-05 12:35 37.46505 126.45591 35 ft 0 kts 171°
2026-05-05 12:35 37.46492 126.45594 35 ft 5 kts 170°
2026-05-05 12:35 37.46440 126.45575 35 ft 11 kts 208°
2026-05-05 12:35 37.46368 126.45487 35 ft 17 kts 235°
2026-05-05 12:36 37.46283 126.45340 35 ft 23 kts 234°
2026-05-05 12:36 37.46225 126.45238 35 ft 0 kts 234°
2026-05-05 12:38 37.46220 126.45227 35 ft 4 kts 239°
2026-05-05 12:38 37.46202 126.45164 35 ft 11 kts 260°
2026-05-05 12:38 37.46190 126.45039 35 ft 16 kts 272°
2026-05-05 12:39 37.46270 126.44910 35 ft 21 kts 323°
2026-05-05 12:39 37.46409 126.44786 35 ft 27 kts 324°
2026-05-05 12:39 37.46572 126.44639 35 ft 29 kts 323°
2026-05-05 12:39 37.46629 126.44437 35 ft 25 kts 271°
2026-05-05 12:40 37.46751 126.44290 35 ft 25 kts 322°
2026-05-05 12:40 37.46877 126.44150 35 ft 18 kts 313°
2026-05-05 12:40 37.46921 126.44027 35 ft 16 kts 225°
2026-05-05 12:40 37.46874 126.43992 35 ft 7 kts 213°
2026-05-05 12:41 37.46855 126.43973 35 ft 0 kts 221°